Location: Stuttgart
(48.8069°N, 9.1544°E)
Time: 13:40:11
(UTC+01:00)

ISS - Pass Details

Date: 13 January 2018
Orbit: 402 x 407 km, 51.6° (Epoch: 21 January)

Event Time Altitude Azimuth Distance (km) Brightness Sun altitude
Exits shadow 05:33:42 27° 118° (ESE) 819 -1.7 -25.5°
Drops below altitude 10° 05:35:20 10° 116° (ESE) 1,464 -0.1 -25.2°
Sets 05:37:25 0° 115° (ESE) 2,323 1.2 -24.8°
